Showing default

ORBCOMM FM 118, 41183

Orbit data source: Space-Track

ORBCOMM FM 118, 41183 is a payload satellite owned by Orbcomm (US) in LEO that was launched on Tue, 22 Dec 2015 UTC via an FALCON 9 launch vehicle from the Air Force Eastern Test Range (AFETR). Payload-class satellites include a variety of spacecraft equipped with specific instruments for various scientific and technological missions. These include communications satellites like Starlink; space stations such as the ISS; scientific satellites like the Hubble; Earth observation satellites from companies like Planet Labs, Umbra, and HawkEye 360; GPS; miniature CubeSats for education and research; and military/defense satellites.

Loading next visibility...
Identifier
41183, 2015-081E
Orbit
LEO
Country
Flag of USUS / ORB
Related business
Manufacturer
SNC Louisville
Mission
Operational Commercial Communications
Bus & Motor
SN-100A, Unknown motor
Mass
172 kg wet, 158 kg dry
Launch date (UTC)
2015-12-22 (10 years ago)
Launch vehicle
FALCON 9
Launch site
Air Force Eastern Test Range (AFETR)
Object type
Payload
Rocket body
Debris
Shape & HBR
Box + 1 Pan + 1 Ant, 6.5 m
Radar Cross Section
2.222 m², Medium (>0.1 m² and < 1m²)

Expand to show TLE details & history
Last TLE update: 1 day ago

TLE from 1 day ago
0 ORBCOMM FM 118
1 41183U 15081E   25257.30136853  .00000395  00000-0  12105-3 0  9991
2 41183  47.0031 225.7059 0003026 222.7976 137.2674 14.58323408517450
Epoch: 2025-09-14T07:13Z
TLE epoch observation values (Epoch: 2025-09-14T07:13:58.24Z)
Latitude
-0.00006°
Longitude
123.69084°
Altitude
700.381 km
Speed
7.506 km/s
True Right ascension
15h 02m 49s
True Declination
0° 00' 00"
Sunlit
Object was in daylight at epoch
Visualization orbit readout
Latitude
Unknown
Longitude
Unknown
Altitude
Unknown
Speed
Unknown
Apparent Right ascension
Unknown
Apparent Declination
Unknown
Sunlit
N/A
Visualization observer readout
Local Sidereal Time
00:36:09
Azimuth
Unknown
Elevation
Unknown
Doppler factor
Unknown
Orbital elements
Apogee altitude
701.969 km
Perigee altitude
697.685 km
Semi-major axis
7,077.964 km
Eccentricity
0.0003
Inclination
47.0031°
RAAN
225.7059°
Arg. of periapsis
222.7976°
True anomaly
137.29092°
Mean anomaly
137.2674°
Eccentric anomaly
137.27916°
Mean motion
3.64486 °/min
Orbital period
98.77 mins
BSTAR
0.00012105
Loading maneuver chart data...
Computing Atmospheric mass density...
Loading historical data...
Loading historical data...
Loading historical data...
Loading historical data...
Loading historical data...
Loading historical data...
Loading historical data...

Documentation

Showing up to 5 results
|